Regional Weather Roundup
Issued by NWS Charleston, SC

Current Version | Previous Version | Graphics & Text | Print | Product List | Glossary On
Versions: 1 2 3 4 5 6 7 8 9 10 11 12 13 14 15 16 17 18 19 20 21 22 23 24 25 26 27 28 29 30 31 32 33 34 35 36 37 38 39 40 41 42 43 44 45 46 47 48 49 50
000 ASUS42 KCHS 240225 RWRCHS REGIONAL WEATHER ROUNDUP NATIONAL WEATHER SERVICE CHARLESTON SC 1000 PM EDT WED JUL 23 2014 NOTE: "FAIR" INDICATES FEW OR NO CLOUDS BELOW 12,000 FEET WITH NO SIGNIFICANT WEATHER AND/OR OBSTRUCTIONS TO VISIBILITY. NOT ALL STATIONS ARE QUALITY CONTROLLED BY THE NATIONAL WEATHER SERVICE. USE DATA WITH CAUTION...ESPECIALLY DEWPOINT OBSERVATIONS. SCZ027-030-031-034>040-042>050-240300- ...SOUTH CAROLINA... CITY SKY/WX TMP DP RH WIND PRES REMARKS N CHARLESTON PTCLDY 80 75 84 S5 29.99S WATERFRONT PRK N/A 82 N/A N/A SW8 N/A FORT JOHNSON NOT AVBL MOUNT PLEASANT FAIR 81 75 83 SW3 29.99R JOHNS ISLAND CLEAR 81 72 74 CALM 29.99S PINOPOLIS N/A 82 75 78 S3 29.91R MONCKS CORNER N/A 81 77 89 S5 29.98S SUMMERVILLE FAIR 79 77 94 S5 29.99R BEAUFORT MCAS PTCLDY 83 76 79 SW6 29.98F HX 91 BEAUFORT ARPT FAIR 81 77 89 S5 29.98S HILTON HEAD IS PTCLDY 82 77 83 S8 30.00S HX 91 GEORGETOWN NOT AVBL WALTERBORO PTCLDY 79 N/A N/A S3 29.99S ORANGEBURG CLEAR 80 73 79 S5 29.98S BARNWELL FAIR 81 73 78 SE5 29.98R AIKEN FAIR 77 73 88 CALM 30.01S MANNING FAIR 82 77 83 S5 29.97S HX 91 KINGSTREE NOT AVBL COLUMBIA PTCLDY 84 71 65 SW3 29.95F SUMTER PTCLDY 81 76 86 S9 29.95S FLORENCE CLEAR 80 75 84 S8 29.95S MYRTLE BEACH CLEAR 81 73 78 SW6 29.97S N MYRTLE BEACH MOCLDY 81 75 82 SW14 29.97S $$ GAZ063-065-086>088-099>101-113>116-118-119-134-136>141-150-240300- ...GEORGIA... CITY SKY/WX TMP DP RH WIND PRES REMARKS SAVANNAH ARPT MOCLDY 82 75 79 S6 29.99S HUNTER AAF PTCLDY 82 76 83 VRB2 29.98R FORT STEWART PTCLDY 81 75 83 SE5 29.98S STATESBORO NOT AVBL SYLVANIA PTCLDY 82 79 90 S5 29.99S HX 91 CLAXTON FAIR 82 79 89 CALM 29.98S HX 93 THOMSON CLEAR 78 78 100 CALM 30.02S AUGUSTA-BUSH PTCLDY 80 71 74 CALM 29.96F AUGUSTA-DANIEL LGT RAIN 79 72 79 VRB3 29.98F SWAINSBORO FAIR 79 79 100 CALM 29.98F VIDALIA N/A 79 72 78 CALM 29.99S ALMA PTCLDY 78 70 76 CALM 29.98R WAYCROSS PTCLDY 85 76 74 S3 29.99R HX 93 JESUP NOT AVBL BRUNSWICK MOCLDY 84 77 79 CALM 30.00S HX 94 SAINT SIMONS MOCLDY 83 76 79 S7 30.00S HX 91 $$ SCZ027-028-034-036>038-045-046-048>050-GAZ119-141-240300- ...LAKE AND SUPPLEMENTAL COASTAL OBSERVATIONS... STATION/POSITION TIME TEMP WIND PRES WAVE SWELL AIR SEA DIR/SP/G HT/PER HT/PER/DIR (UTC) (F) (DEG/KT/KT) (MB) (FT/S) (FT/S/D) UPR LAKE MARION NOT AVBL WINYAH BAY 0200 79 240/ 2 1015.0S LAKE MURRAY 0100 86 240/ 6/ 8 1013.5F ACE BASIN NERRS 0200 82 CALM 1015.0S FORT PULASKI 0200 83 180/ 3/ 8 1015.9R SAPELO ISLAND 0200 83 180/ 10 1016.0S $$ ANZ835-935-AMZ111-154-330-350-352-354-374-450-454-472-240300- ...C-MAN AND BUOY OBSERVATIONS... STATION/POSITION TIME TEMP WIND PRES WAVE SWELL AIR SEA DIR/SP/G HT/PER HT/PER/DIR (UTC) (F) (DEG/KT/KT) (MB) (FT/S) (FT/S/D) FOLLY BEACH CMAN 0200 82 220/ 11/ 13 1015.9R BUOY 41004 0200 82 83 210/ 12/ 14 1015.0F 3/ 6 2/ 6 BUOY 41008 0200 83 85 180/ 14/ 16 1015.5R 2/ 8 2/100/ 8 5E ST. MARYS GA 0200 84 N/A 3/ 3 FRYING PAN BUOY NOT AVBL BUOY 41025 0200 VRB 17/ 19 1013.7S 4/ 7 2/160/ 7 CAPE LOOKOUT NC 0200 80 220/ 12/ 16 1014.4S BUOY 41002 0126 82 82 220/ 17/ 21 1017.9F 4/ 7 2/190/ 7 BUOY 41010 0200 82 83 170/ 10/ 12 1018.0S 3/ 8 3/120/ 8 BUOY 41012 NOT AVBL ST AUGUSTINE FL 0200 83 170/ 13/ 14 1017.0R CAPERS NEARSHORE 0100 82 220/ 14/ 16 N/A FRIPP NEARSHORE NOT AVBL $$

USA.gov is the U.S. government's official web portal to all federal, state and local government web resources and services.